Regional Weather Roundup
Issued by NWS Cleveland, OH

Home | Current Version | Previous Version | Graphics & Text | Print | Product List | Glossary On
Versions: 1 2 3 4 5 6 7 8 9 10 11 12 13 14 15 16 17 18 19 20 21 22 23 24 25 26 27 28 29 30 31 32 33 34 35 36 37 38 39 40 41 42 43 44 45 46 47 48 49 50
000
ASUS41 KCLE 271402
RWRCLE
OHIO REGIONAL WEATHER ROUNDUP
NATIONAL WEATHER SERVICE CLEVELAND, OH
1000 AM EDT FRI MAY 27 2016

NOTE: "FAIR" INDICATES FEW OR NO CLOUDS BELOW 12,000 FEET WITH NO
SIGNIFICANT WEATHER AND/OR OBSTRUCTIONS TO VISIBILITY.

OHZ001>008-015>018-024>027-034-035-043-044-271500-
   NORTHWEST OHIO

CITY           SKY/WX    TMP DP  RH WIND       PRES   REMARKS
DEFIANCE       SUNNY     73  62  68 SW9       30.00S
FINDLAY        SUNNY     75  61  61 SW9       30.01S
TOLEDO EXPRESS MOSUNNY   73  63  70 S7        30.00S
TOLEDO EXEC    MOSUNNY   73  62  68 SW9       30.01S
LIMA           SUNNY     73  63  70 SW13      30.02S
$$

OHZ009>014-019>023-028>033-038-089-271500-
   NORTHEAST OHIO

CITY           SKY/WX    TMP DP  RH WIND       PRES   REMARKS
CLE-HOPKINS    MOSUNNY   76  63  64 SW7       30.03F
CLE-LAKEFRONT  SUNNY     76  64  66 SW6       30.00F
CUY CO. ARPT   MOSUNNY   77  64  65 SW9       30.03S
LORAIN-ELYRIA  MOSUNNY   73  62  68 SW10      30.03F
ASHTABULA      SUNNY     75  65  70 SW9       30.03S
AKRON-CANTON   PTSUNNY   73  63  70 SW9       30.05F
WOOSTER        CLOUDY    71  63  75 W13       30.06R
MANSFIELD      SUNNY     73  63  70 SW7       30.05S
YOUNGSTOWN     PTSUNNY   73  63  70 SW8       30.05S
$$

OHZ042-051>053-060>062-070>072-077>081-271500-
  SOUTHWEST OHIO

CITY           SKY/WX    TMP DP  RH WIND       PRES   REMARKS
CINC-COVINGTON PTSUNNY   74  66  76 S6        30.04F
CINC-LUNKEN    SUNNY     72  67  84 S7        30.04F
HAMILTON       SUNNY     76  66  71 CALM      30.05S
DAYTON         MOSUNNY   72  64  76 SW7       30.05F
WRIGHT-PAT AFB NOT AVBL
DAYTON GENERAL SUNNY     73  63  70 SW6       30.04F
WILMINGTON     SUNNY     74  65  73 SW12      30.05S
$$

OHZ036-037-039>041-045>050-054>059-063>069-073>076-082>088-271500-
  CENTRAL AND SOUTHEAST OHIO

CITY           SKY/WX    TMP DP  RH WIND       PRES   REMARKS
COLUMBUS       CLOUDY    73  63  70 SW9       30.04S
OSU AIRPORT    PTSUNNY   74  63  68 SW8       30.05R
BOLTON FIELD   SUNNY     73  64  73 SW5       30.05F
RICKENBACK AFB NOT AVBL
NEWARK         MOSUNNY   78  62  57 SW8       30.04F
MARION         CLOUDY    71  62  73 SW7       30.04S
LANCASTER      MOSUNNY   77  63  61 SW8       30.06S
ZANESVILLE     MOSUNNY   78  62  57 SW8       30.06S
NEW PHILLY     SUNNY     77  62  59 W7        30.06F
$$



USA.gov is the U.S. government's official web portal to all federal, state and local government web resources and services.